Wind_Speed
18 19 21 22 21 21 21 23 23 21 22 23 23 22 20 19 17 15 15 15 16 15 15 16 16 15 15 15 14 14 13 13 13 13 13 13 14 14 13 13 13 13
18 18 19 20 21 21 21 23 22 21 22 24 23 21 20 19 18 15 15 16 16 16 16 16 15 14 15 15 14 14 14 14 14 14 14 14 14 14 13 13 14 14
17 17 18 19 20 21 20 21 21 21 22 23 22 21 21 19 17 15 15 16 17 17 16 16 15 15 15 15 14 14 14 14 14 14 14 14 14 14 14 14 14 15
17 17 19 20 19 19 19 19 20 22 22 22 22 22 21 19 17 16 17 17 17 17 17 16 15 16 15 14 14 13 13 13 13 13 14 14 13 13 15 15 14 14
18 18 20 20 19 19 18 18 21 23 23 23 23 23 21 19 19 19 19 19 17 17 16 15 15 16 16 15 14 13 13 13 13 12 13 13 13 13 13 14 13 13
17 19 20 20 18 19 19 20 22 23 22 23 23 22 20 21 21 20 20 19 18 17 16 15 15 16 17 16 15 14 14 14 13 12 12 11 11 12 12 12 12 12
15 19 21 20 18 19 20 22 24 23 23 25 23 21 21 22 21 20 20 19 18 17 16 16 16 16 16 16 15 14 13 13 13 12 12 11 11 12 12 11 12 12
16 18 22 21 20 20 22 24 25 23 24 25 22 20 22 22 21 20 18 16 16 17 17 17 16 15 15 15 14 13 13 14 14 13 13 12 12 11 11 11 12 12
17 18 21 22 21 23 25 26 25 23 25 24 20 20 22 21 20 19 17 14 16 19 19 17 16 15 15 14 14 14 14 14 14 13 12 13 12 11 11 11 11 12
19 20 20 21 23 25 27 27 24 23 26 23 20 21 22 21 20 17 14 16 20 22 20 17 18 17 16 15 14 14 13 13 13 12 11 12 13 12 12 12 12 12
21 22 22 23 25 26 28 27 24 25 27 23 20 22 21 20 18 14 14 19 23 22 19 19 19 18 16 15 13 12 10 10 11 11 10 12 13 13 12 13 12 13
22 23 25 27 27 26 28 26 24 27 28 23 21 22 21 19 17 15 15 19 23 22 20 20 19 17 15 14 13 11 9 9 10 11 12 12 13 13 12 12 13 14
22 25 27 28 27 27 27 25 26 29 27 22 22 23 21 19 19 16 15 18 22 22 20 19 19 17 16 15 14 12 10 10 11 13 13 13 13 12 12 13 15 16
23 27 29 29 28 28 27 27 28 27 24 22 24 24 21 20 20 18 17 19 22 21 19 18 18 18 17 16 14 13 11 11 12 13 14 14 13 12 12 13 14 15
26 29 30 29 29 29 27 28 27 24 23 24 24 23 23 22 21 19 19 20 21 20 18 18 18 17 17 16 14 15 14 13 13 14 15 15 14 13 13 13 14 14
29 30 30 29 29 28 27 26 26 25 26 26 24 24 24 23 21 20 20 20 20 19 18 19 18 17 17 16 16 16 15 14 14 14 15 16 16 15 15 15 15 14
31 32 31 29 29 28 27 26 27 28 28 26 25 26 25 24 21 20 20 20 19 18 18 18 18 17 17 17 17 16 15 15 15 15 16 16 16 15 15 15 15 14
31 31 29 28 29 30 30 29 29 28 27 27 26 26 25 24 21 19 20 20 19 18 18 18 17 17 16 16 17 18 17 16 16 16 16 16 15 14 14 13 12 12
27 28 30 31 31 31 30 30 29 28 27 27 25 25 24 23 20 18 20 20 19 18 18 18 17 17 17 16 16 18 18 17 16 16 15 15 15 14 14 12 10 9
26 29 32 30 29 28 26 26 28 28 27 26 25 25 24 22 20 21 21 21 19 18 17 18 18 18 17 16 16 16 17 17 17 17 16 15 15 14 13 11 9 7
26 29 28 25 27 28 25 24 26 26 26 26 26 26 25 23 23 22 21 20 18 17 17 18 19 19 18 17 16 16 16 17 18 18 17 16 14 13 11 10 9 8
27 29 26 25 28 31 28 27 27 27 27 28 27 26 26 26 24 22 20 18 17 15 16 17 18 18 17 17 16 16 16 16 17 17 16 15 13 11 9 8 8 7
24 26 26 27 30 31 30 30 30 28 28 29 29 28 28 27 25 21 19 16 15 14 14 15 17 17 17 16 16 16 15 15 15 14 13 12 11 9 7 6 6 6
22 24 27 30 33 33 33 33 32 31 30 29 28 27 27 26 25 23 21 18 17 16 15 15 17 18 17 16 16 16 16 15 14 11 9 8 7 7 7 7 7 7
20 25 30 33 34 35 36 34 31 30 29 27 26 25 24 25 24 23 22 21 20 19 17 16 16 17 17 17 17 16 15 15 13 10 8 8 7 7 7 7 7 7
13 19 25 30 31 31 30 26 21 19 18 19 21 22 22 22 21 21 21 21 19 17 16 15 14 13 13 13 13 12 10 10 10 9 9 8 7 7 7 7 7 8
Wind_Direction
225 224 228 230 231 225 213 205 200 198 197 194 194 191 186 186 184 178 179 180 180 180 178 180 182 183 187 191 196 199 199 202 205 206 209 209 207 208 208 209 210 211
227 228 233 236 239 232 213 201 199 197 195 192 192 190 186 186 186 181 181 181 181 182 181 182 183 183 185 189 193 196 196 197 200 203 204 207 208 207 210 213 212 212
228 228 230 232 237 236 217 197 195 197 197 195 191 188 187 187 186 183 181 180 180 182 184 185 186 185 184 186 188 190 192 191 196 199 198 202 207 207 210 213 213 213
229 226 226 225 226 229 216 197 196 198 196 197 193 188 188 188 188 185 180 180 180 179 181 184 187 186 185 186 182 183 189 190 192 194 194 197 200 205 209 211 212 213
232 225 222 221 220 220 212 201 201 196 190 194 193 187 186 188 188 185 180 180 181 179 177 179 183 183 184 185 181 181 185 187 190 192 192 193 192 197 205 210 213 213
230 224 220 220 218 213 207 202 199 192 188 190 186 182 184 185 183 181 181 183 185 185 182 180 180 179 182 185 183 183 183 184 190 191 190 190 189 193 198 204 211 209
222 216 215 216 215 207 201 196 190 187 189 188 182 179 181 180 179 182 185 186 188 190 185 177 176 175 178 182 183 182 181 183 188 188 187 186 187 193 195 195 200 199
218 210 205 207 208 201 194 189 184 183 186 184 181 181 181 180 181 181 182 184 184 185 178 171 171 172 175 180 181 181 180 182 184 184 184 183 185 191 190 185 187 191
221 212 202 201 201 195 190 185 181 181 183 182 183 184 182 179 176 175 180 184 178 173 171 167 166 166 166 167 169 173 175 174 175 176 180 183 184 189 187 181 183 187
222 214 203 199 196 192 190 186 182 183 183 183 184 182 180 177 173 173 177 175 169 167 167 164 161 156 152 150 155 162 165 166 167 168 173 181 182 184 185 182 183 184
217 212 203 197 193 190 190 186 184 184 182 182 183 179 176 173 167 162 160 162 164 164 163 160 157 153 149 149 152 156 159 169 174 172 176 179 177 179 183 182 181 178
215 211 202 193 188 188 189 186 182 180 178 182 182 173 166 163 157 150 150 157 160 158 156 157 156 155 154 153 153 153 160 175 181 182 182 176 172 174 179 180 176 172
216 208 200 192 186 187 186 180 177 177 178 181 176 165 161 160 157 154 153 155 157 156 157 158 157 158 157 154 154 153 153 159 169 176 175 166 166 170 175 181 176 166
215 207 199 191 188 187 181 174 177 180 180 178 169 163 164 163 161 163 161 159 159 160 161 160 159 160 161 158 159 157 149 143 150 162 165 161 163 168 171 177 169 154
213 205 196 190 188 187 182 179 183 184 178 171 165 162 164 165 167 169 164 160 162 163 164 163 161 162 164 162 159 155 149 139 137 146 155 156 158 162 164 162 156 151
210 202 193 189 186 184 181 180 180 176 170 166 162 162 165 167 172 173 166 163 164 164 166 166 164 164 166 164 157 155 155 150 143 142 145 147 147 151 157 159 161 165
204 197 190 185 180 176 173 173 172 169 167 166 165 166 167 170 173 172 169 168 165 166 169 169 167 166 168 169 165 162 161 157 154 150 146 146 146 147 152 159 166 173
194 191 185 177 173 171 168 167 168 167 167 169 169 167 167 170 173 171 170 170 168 169 172 171 170 169 170 173 175 172 167 160 156 154 152 153 155 153 154 157 163 171
186 179 173 166 165 167 166 165 165 164 166 168 165 164 167 170 170 168 167 169 168 170 172 170 169 170 168 171 174 173 172 168 161 157 156 157 159 159 158 159 164 172
183 171 164 161 162 165 165 162 161 162 165 166 164 166 167 165 162 160 161 163 166 169 171 169 166 166 167 170 171 170 172 172 167 163 162 160 158 159 160 161 169 180
178 171 167 169 168 166 164 161 162 164 164 163 164 165 163 157 155 155 156 158 162 166 169 168 165 164 166 169 170 168 168 168 165 162 160 156 152 153 157 163 171 180
172 172 175 178 170 165 165 167 169 168 163 161 163 160 156 154 153 154 156 158 161 167 172 172 169 166 167 171 171 170 170 170 167 163 159 155 153 153 157 163 172 182
162 168 172 173 168 166 168 170 171 169 162 161 162 158 154 156 158 159 162 165 168 174 181 182 179 175 174 176 178 176 176 177 177 173 169 166 166 170 178 189 200 207
157 161 162 165 167 166 164 165 166 163 157 156 157 156 152 155 159 162 164 168 170 169 171 177 180 178 179 182 186 188 190 191 190 189 190 191 190 191 198 209 216 222
148 151 152 156 159 158 158 160 158 153 151 152 156 158 154 152 156 161 161 162 165 166 165 168 172 174 180 186 190 195 201 203 204 210 222 227 221 212 207 214 227 243
124 135 140 146 149 148 150 151 147 145 151 155 158 162 162 159 161 166 167 167 170 174 175 177 179 181 186 193 196 199 204 208 212 223 234 234 224 216 216 224 233 243
Height
1506 1509 1510 1512 1513 1513 1514 1516 1518 1520 1522 1523 1524 1526 1527 1528 1529 1530 1532 1533 1535 1537 1538 1540 1541 1543 1544 1545 1547 1548 1548 1549 1550 1550 1551 1551 1552 1552 1553 1554 1554 1555
1507 1510 1512 1513 1513 1513 1514 1516 1518 1520 1522 1523 1525 1526 1527 1528 1529 1530 1531 1533 1535 1537 1538 1540 1541 1542 1544 1545 1546 1547 1548 1548 1549 1549 1550 1550 1551 1552 1552 1553 1554 1555
1507 1510 1511 1512 1513 1514 1516 1518 1520 1521 1523 1524 1525 1526 1527 1528 1528 1530 1531 1533 1535 1537 1538 1539 1541 1542 1543 1545 1546 1547 1547 1548 1548 1549 1549 1550 1550 1551 1552 1553 1554 1555
1504 1506 1507 1509 1511 1514 1517 1520 1521 1521 1523 1525 1526 1526 1527 1528 1528 1530 1531 1533 1535 1536 1538 1539 1540 1541 1543 1544 1545 1546 1547 1547 1548 1548 1549 1549 1550 1551 1551 1552 1553 1555
1503 1504 1505 1508 1510 1513 1516 1519 1519 1520 1523 1525 1526 1526 1527 1527 1528 1530 1531 1533 1534 1536 1537 1539 1540 1541 1542 1544 1545 1546 1546 1547 1548 1548 1549 1549 1550 1550 1551 1552 1553 1554
1501 1502 1504 1507 1510 1512 1514 1516 1518 1520 1523 1525 1525 1525 1526 1527 1528 1530 1531 1533 1534 1536 1537 1538 1539 1541 1542 1543 1544 1545 1546 1547 1548 1548 1549 1549 1550 1550 1551 1552 1553 1554
1499 1500 1503 1506 1509 1511 1513 1514 1516 1519 1522 1524 1524 1525 1526 1527 1529 1530 1532 1533 1534 1535 1536 1538 1539 1540 1541 1543 1544 1545 1546 1547 1548 1548 1549 1549 1549 1550 1551 1552 1553 1554
1497 1498 1500 1503 1507 1509 1511 1512 1514 1516 1520 1522 1523 1525 1526 1527 1529 1530 1532 1533 1534 1535 1536 1537 1539 1540 1541 1542 1544 1545 1546 1547 1548 1548 1549 1549 1549 1550 1551 1552 1553 1554
1496 1497 1499 1501 1504 1507 1509 1511 1513 1515 1518 1520 1523 1525 1526 1527 1528 1530 1531 1533 1534 1535 1536 1537 1539 1540 1541 1543 1544 1544 1545 1546 1547 1548 1548 1549 1549 1550 1551 1552 1553 1554
1495 1497 1499 1501 1503 1505 1507 1510 1512 1515 1517 1520 1523 1525 1526 1526 1528 1529 1530 1532 1534 1535 1537 1538 1539 1540 1541 1543 1544 1544 1545 1546 1547 1547 1548 1549 1550 1550 1551 1552 1553 1554
1493 1495 1497 1498 1501 1504 1506 1509 1512 1515 1517 1520 1522 1524 1526 1526 1528 1529 1530 1532 1534 1535 1537 1538 1539 1540 1542 1543 1544 1545 1545 1546 1546 1547 1548 1549 1550 1551 1551 1552 1553 1554
1492 1494 1495 1496 1499 1503 1506 1508 1511 1515 1518 1519 1522 1524 1525 1527 1528 1529 1531 1532 1534 1536 1537 1538 1539 1541 1542 1543 1544 1544 1545 1545 1546 1547 1548 1549 1550 1551 1552 1553 1553 1554
1491 1493 1494 1496 1498 1501 1505 1507 1510 1514 1517 1519 1521 1523 1525 1527 1528 1530 1531 1533 1534 1536 1537 1538 1539 1540 1542 1543 1543 1544 1544 1545 1545 1547 1548 1549 1550 1551 1552 1553 1554 1554
1491 1491 1493 1495 1497 1500 1504 1506 1509 1513 1516 1518 1521 1522 1524 1527 1528 1529 1531 1532 1534 1536 1538 1539 1539 1540 1542 1542 1543 1544 1545 1545 1546 1547 1548 1549 1550 1551 1552 1554 1555 1555
1489 1490 1493 1495 1498 1501 1503 1505 1509 1513 1515 1518 1521 1522 1524 1526 1528 1529 1530 1532 1534 1536 1538 1539 1540 1541 1542 1543 1544 1544 1545 1546 1546 1547 1548 1549 1550 1551 1552 1554 1555 1556
1488 1490 1492 1495 1498 1501 1503 1505 1509 1512 1515 1517 1520 1522 1524 1526 1527 1529 1531 1532 1534 1536 1537 1539 1540 1541 1542 1543 1544 1545 1546 1546 1547 1547 1548 1549 1550 1551 1552 1553 1555 1556
1486 1489 1492 1495 1498 1500 1502 1505 1509 1512 1514 1516 1519 1521 1523 1525 1527 1529 1530 1532 1534 1535 1537 1539 1540 1541 1542 1543 1545 1545 1546 1546 1547 1548 1549 1549 1550 1551 1552 1554 1555 1556
1485 1487 1491 1494 1498 1500 1502 1505 1508 1511 1513 1516 1518 1520 1523 1525 1527 1528 1530 1532 1533 1535 1538 1539 1540 1542 1543 1544 1545 1546 1546 1547 1547 1548 1549 1550 1551 1551 1553 1554 1555 1556
1485 1487 1490 1494 1498 1500 1502 1504 1507 1510 1513 1515 1518 1520 1522 1524 1526 1528 1530 1532 1534 1536 1538 1539 1541 1542 1543 1544 1545 1546 1547 1547 1548 1548 1549 1550 1551 1552 1553 1554 1556 1557
1486 1488 1491 1494 1497 1500 1503 1505 1508 1510 1513 1515 1518 1520 1522 1524 1526 1528 1530 1532 1534 1536 1538 1540 1541 1542 1543 1544 1545 1546 1547 1547 1548 1549 1549 1551 1552 1553 1554 1555 1556 1557
1488 1490 1491 1494 1497 1500 1503 1507 1509 1511 1513 1515 1518 1520 1521 1523 1526 1529 1531 1533 1535 1537 1539 1540 1541 1542 1543 1544 1545 1546 1547 1548 1548 1548 1549 1550 1552 1553 1554 1555 1555 1556
1489 1491 1493 1495 1498 1500 1503 1507 1509 1512 1514 1515 1517 1519 1521 1522 1526 1529 1531 1533 1536 1537 1539 1540 1541 1542 1543 1544 1545 1546 1547 1548 1548 1548 1549 1550 1551 1553 1554 1554 1555 1556
1491 1493 1494 1496 1498 1500 1503 1507 1509 1512 1514 1515 1517 1519 1521 1522 1524 1528 1531 1534 1536 1538 1539 1540 1541 1542 1543 1544 1544 1545 1546 1547 1548 1548 1549 1549 1550 1552 1553 1554 1554 1555
1493 1495 1496 1497 1499 1501 1504 1507 1509 1511 1514 1516 1517 1519 1521 1522 1524 1527 1530 1533 1536 1537 1539 1540 1540 1541 1542 1543 1544 1544 1545 1546 1547 1548 1548 1549 1550 1551 1552 1553 1553 1554
1497 1497 1498 1499 1500 1502 1505 1508 1509 1511 1514 1516 1517 1520 1522 1524 1525 1527 1529 1532 1535 1536 1538 1539 1540 1541 1541 1542 1543 1543 1544 1545 1546 1547 1548 1549 1549 1550 1551 1551 1552 1552
1501 1501 1501 1501 1502 1504 1506 1509 1511 1513 1515 1517 1519 1522 1524 1525 1526 1528 1529 1532 1534 1536 1537 1538 1539 1540 1540 1541 1542 1543 1543 1544 1545 1546 1547 1547 1548 1548 1549 1550 1550 1550